QPF
0.00 0.01 0.00 0.00 0.00 0.00 0.00 0.01 0.00 0.00 0.00 0.00 0.00 0.00 0.00 0.00 0.00 0.00 0.00 0.01 0.00 0.00 0.01 0.01 0.01 0.01 0.02 0.03 0.03 0.03 0.02 0.03 0.04 0.03 0.04 0.05 0.08 0.08 0.08 0.08 0.08 0.08 0.06 0.07
0.01 0.00 0.00 0.00 0.00 0.01 0.01 0.00 0.00 0.00 0.00 0.00 0.00 0.00 0.00 0.00 0.00 0.00 0.00 0.00 0.00 0.01 0.01 0.01 0.01 0.02 0.03 0.04 0.04 0.04 0.03 0.03 0.04 0.03 0.03 0.04 0.07 0.08 0.07 0.07 0.07 0.06 0.06 0.06
0.00 0.00 0.00 0.00 0.00 0.01 0.01 0.00 0.00 0.00 0.00 0.01 0.01 0.01 0.00 0.00 0.00 0.00 0.00 0.00 0.00 0.00 0.01 0.01 0.01 0.02 0.03 0.04 0.04 0.04 0.04 0.03 0.03 0.03 0.03 0.04 0.07 0.08 0.07 0.06 0.06 0.05 0.05 0.05
0.01 0.00 0.00 0.00 0.00 0.00 0.01 0.01 0.01 0.01 0.01 0.01 0.01 0.01 0.00 0.00 0.00 0.00 0.01 0.00 0.00 0.00 0.01 0.01 0.01 0.02 0.04 0.05 0.04 0.04 0.04 0.04 0.03 0.04 0.05 0.05 0.06 0.07 0.06 0.05 0.04 0.04 0.04 0.04
0.01 0.00 0.00 0.00 0.00 0.00 0.01 0.00 0.01 0.02 0.02 0.02 0.01 0.01 0.00 0.00 0.00 0.00 0.01 0.01 0.00 0.00 0.01 0.01 0.01 0.01 0.03 0.05 0.05 0.03 0.03 0.04 0.04 0.04 0.04 0.06 0.06 0.07 0.06 0.05 0.04 0.03 0.03 0.03
0.00 0.00 0.00 0.00 0.00 0.00 0.00 0.01 0.01 0.02 0.03 0.03 0.01 0.01 0.01 0.00 0.00 0.00 0.00 0.01 0.00 0.00 0.01 0.01 0.01 0.02 0.02 0.04 0.07 0.04 0.03 0.03 0.03 0.03 0.04 0.05 0.06 0.08 0.08 0.07 0.04 0.03 0.03 0.02
0.01 0.00 0.00 0.00 0.01 0.01 0.01 0.02 0.03 0.03 0.03 0.02 0.00 0.01 0.01 0.00 0.00 0.00 0.00 0.00 0.00 0.00 0.01 0.01 0.01 0.02 0.02 0.03 0.05 0.07 0.04 0.03 0.03 0.03 0.04 0.05 0.05 0.07 0.08 0.07 0.05 0.04 0.03 0.03
0.01 0.00 0.00 0.00 0.00 0.01 0.01 0.01 0.02 0.02 0.01 0.00 0.00 0.00 0.00 0.00 0.00 0.00 0.00 0.00 0.00 0.01 0.01 0.01 0.01 0.02 0.02 0.02 0.03 0.06 0.06 0.04 0.03 0.03 0.03 0.04 0.04 0.05 0.05 0.06 0.06 0.05 0.04 0.04
0.02 0.01 0.00 0.00 0.00 0.00 0.01 0.01 0.01 0.02 0.02 0.01 0.00 0.00 0.00 0.00 0.00 0.00 0.00 0.00 0.00 0.01 0.01 0.01 0.01 0.02 0.02 0.02 0.02 0.04 0.07 0.06 0.04 0.04 0.03 0.03 0.03 0.04 0.03 0.03 0.04 0.05 0.04 0.03
0.03 0.03 0.01 0.00 0.01 0.01 0.01 0.01 0.02 0.03 0.03 0.02 0.01 0.00 0.00 0.00 0.00 0.00 0.00 0.00 0.00 0.01 0.01 0.01 0.01 0.02 0.02 0.02 0.02 0.02 0.05 0.07 0.06 0.05 0.04 0.03 0.03 0.03 0.03 0.02 0.03 0.04 0.06 0.06
0.03 0.04 0.02 0.01 0.01 0.01 0.01 0.01 0.03 0.03 0.03 0.02 0.02 0.01 0.01 0.00 0.00 0.00 0.01 0.01 0.01 0.01 0.01 0.01 0.01 0.02 0.02 0.03 0.03 0.02 0.03 0.05 0.07 0.07 0.06 0.04 0.03 0.04 0.04 0.03 0.03 0.03 0.04 0.05
0.02 0.04 0.03 0.01 0.00 0.01 0.01 0.01 0.02 0.03 0.03 0.02 0.02 0.01 0.01 0.01 0.01 0.01 0.01 0.01 0.01 0.01 0.01 0.01 0.01 0.02 0.03 0.03 0.03 0.02 0.02 0.03 0.05 0.07 0.09 0.07 0.05 0.04 0.05 0.04 0.04 0.04 0.04 0.04
0.03 0.05 0.04 0.02 0.01 0.01 0.01 0.01 0.01 0.02 0.03 0.02 0.02 0.01 0.01 0.01 0.01 0.01 0.01 0.01 0.02 0.01 0.01 0.02 0.02 0.02 0.03 0.03 0.03 0.03 0.03 0.04 0.05 0.06 0.08 0.09 0.07 0.06 0.06 0.05 0.05 0.04 0.04 0.04
0.06 0.06 0.03 0.01 0.01 0.01 0.01 0.01 0.01 0.02 0.04 0.02 0.01 0.01 0.01 0.01 0.01 0.02 0.02 0.02 0.02 0.02 0.02 0.02 0.02 0.03 0.03 0.04 0.03 0.03 0.03 0.04 0.06 0.06 0.07 0.07 0.08 0.07 0.06 0.07 0.06 0.05 0.05 0.04
0.06 0.04 0.01 0.01 0.00 0.01 0.01 0.01 0.01 0.01 0.01 0.01 0.00 0.00 0.01 0.01 0.01 0.01 0.01 0.01 0.02 0.02 0.03 0.02 0.03 0.03 0.03 0.04 0.03 0.03 0.04 0.04 0.05 0.07 0.07 0.06 0.06 0.06 0.06 0.06 0.06 0.06 0.06 0.05
0.05 0.03 0.01 0.01 0.01 0.01 0.01 0.01 0.01 0.01 0.01 0.01 0.01 0.01 0.01 0.01 0.01 0.01 0.01 0.01 0.01 0.02 0.03 0.03 0.03 0.03 0.03 0.03 0.03 0.03 0.04 0.05 0.05 0.06 0.07 0.06 0.05 0.05 0.05 0.05 0.06 0.06 0.06 0.06
0.04 0.03 0.03 0.01 0.01 0.02 0.02 0.01 0.01 0.01 0.01 0.01 0.01 0.01 0.01 0.01 0.01 0.01 0.01 0.01 0.02 0.02 0.02 0.03 0.03 0.03 0.03 0.03 0.03 0.03 0.03 0.05 0.05 0.06 0.06 0.06 0.05 0.04 0.04 0.04 0.05 0.05 0.05 0.04
0.04 0.03 0.04 0.03 0.02 0.02 0.01 0.01 0.01 0.01 0.01 0.01 0.01 0.01 0.01 0.01 0.01 0.01 0.01 0.01 0.02 0.02 0.02 0.03 0.03 0.03 0.03 0.04 0.03 0.03 0.03 0.04 0.05 0.05 0.06 0.05 0.05 0.04 0.03 0.03 0.04 0.04 0.04 0.04
0.03 0.04 0.05 0.05 0.03 0.01 0.01 0.01 0.01 0.01 0.01 0.01 0.01 0.01 0.01 0.01 0.01 0.01 0.01 0.02 0.02 0.02 0.02 0.03 0.03 0.03 0.03 0.03 0.04 0.03 0.03 0.03 0.04 0.04 0.05 0.04 0.04 0.03 0.03 0.03 0.03 0.03 0.03 0.04
0.02 0.04 0.05 0.05 0.03 0.01 0.01 0.01 0.01 0.01 0.01 0.01 0.01 0.01 0.01 0.01 0.01 0.01 0.02 0.01 0.02 0.02 0.02 0.02 0.02 0.03 0.03 0.03 0.03 0.03 0.03 0.03 0.03 0.03 0.03 0.04 0.03 0.03 0.02 0.02 0.02 0.02 0.02 0.03
0.01 0.03 0.04 0.03 0.03 0.01 0.01 0.01 0.01 0.02 0.01 0.01 0.01 0.01 0.01 0.01 0.02 0.02 0.01 0.01 0.02 0.02 0.02 0.02 0.02 0.02 0.03 0.03 0.03 0.03 0.03 0.03 0.02 0.02 0.02 0.02 0.03 0.03 0.02 0.02 0.02 0.02 0.02 0.03
0.01 0.02 0.02 0.02 0.03 0.01 0.01 0.01 0.01 0.01 0.01 0.01 0.01 0.01 0.01 0.01 0.01 0.01 0.01 0.01 0.01 0.01 0.01 0.02 0.02 0.02 0.02 0.02 0.02 0.02 0.02 0.02 0.02 0.02 0.02 0.02 0.02 0.03 0.03 0.03 0.02 0.02 0.02 0.03
0.01 0.01 0.02 0.02 0.01 0.01 0.01 0.01 0.01 0.01 0.01 0.01 0.01 0.01 0.01 0.01 0.01 0.01 0.01 0.01 0.01 0.01 0.01 0.01 0.01 0.02 0.02 0.02 0.02 0.02 0.02 0.02 0.02 0.02 0.02 0.02 0.02 0.03 0.03 0.03 0.03 0.03 0.03 0.03
0.01 0.01 0.01 0.01 0.01 0.01 0.01 0.01 0.01 0.01 0.02 0.01 0.01 0.01 0.01 0.01 0.01 0.01 0.01 0.01 0.01 0.01 0.01 0.01 0.01 0.02 0.02 0.02 0.02 0.02 0.02 0.02 0.02 0.02 0.02 0.02 0.02 0.02 0.03 0.03 0.03 0.03 0.03 0.03
0.01 0.01 0.02 0.02 0.01 0.01 0.01 0.01 0.01 0.01 0.01 0.01 0.01 0.01 0.01 0.01 0.01 0.01 0.01 0.01 0.01 0.01 0.01 0.01 0.01 0.01 0.01 0.01 0.01 0.01 0.01 0.02 0.02 0.02 0.02 0.02 0.02 0.02 0.02 0.02 0.02 0.02 0.02 0.02
0.01 0.02 0.02 0.02 0.01 0.02 0.02 0.01 0.01 0.01 0.01 0.01 0.01 0.02 0.01 0.01 0.01 0.01 0.01 0.01 0.01 0.01 0.01 0.01 0.01 0.01 0.01 0.01 0.01 0.01 0.01 0.01 0.01 0.02 0.02 0.01 0.02 0.02 0.02 0.02 0.02 0.02 0.02 0.02
MSLP
1015.53 1015.50 1015.49 1015.52 1015.62 1015.78 1016.02 1016.31 1016.64 1016.97 1017.31 1017.65 1018.02 1018.44 1018.95 1019.60 1020.43 1021.45 1022.66 1024.03 1025.51 1027.04 1028.53 1029.91 1031.12 1032.11 1032.86 1033.37 1033.67 1033.81 1033.84 1033.81 1033.79 1033.81 1033.89 1034.03 1034.21 1034.40 1034.55 1034.64 1034.63 1034.50 1034.27 1033.95
1015.38 1015.26 1015.15 1015.09 1015.07 1015.12 1015.23 1015.39 1015.58 1015.79 1016.02 1016.26 1016.56 1016.95 1017.46 1018.15 1019.04 1020.15 1021.47 1022.96 1024.57 1026.23 1027.85 1029.36 1030.68 1031.78 1032.63 1033.23 1033.61 1033.82 1033.90 1033.93 1033.96 1034.02 1034.14 1034.31 1034.52 1034.74 1034.92 1035.03 1035.03 1034.91 1034.68 1034.36
1015.34 1015.19 1015.05 1014.93 1014.85 1014.82 1014.82 1014.85 1014.89 1014.96 1015.05 1015.19 1015.41 1015.75 1016.25 1016.96 1017.91 1019.09 1020.50 1022.08 1023.78 1025.53 1027.23 1028.82 1030.22 1031.39 1032.32 1033.01 1033.47 1033.76 1033.93 1034.02 1034.11 1034.22 1034.37 1034.57 1034.79 1035.02 1035.20 1035.31 1035.31 1035.20 1034.98 1034.66
1015.41 1015.28 1015.16 1015.05 1014.94 1014.85 1014.76 1014.66 1014.57 1014.50 1014.45 1014.47 1014.60 1014.89 1015.38 1016.12 1017.11 1018.36 1019.82 1021.46 1023.20 1024.98 1026.72 1028.32 1029.76 1030.98 1031.96 1032.72 1033.27 1033.65 1033.91 1034.09 1034.25 1034.41 1034.59 1034.79 1035.01 1035.22 1035.38 1035.47 1035.47 1035.36 1035.15 1034.87
1015.55 1015.48 1015.41 1015.33 1015.23 1015.10 1014.93 1014.74 1014.52 1014.31 1014.14 1014.05 1014.11 1014.37 1014.85 1015.62 1016.65 1017.93 1019.43 1021.09 1022.84 1024.60 1026.31 1027.89 1029.31 1030.54 1031.56 1032.38 1033.01 1033.49 1033.85 1034.13 1034.36 1034.57 1034.78 1034.98 1035.17 1035.35 1035.47 1035.53 1035.52 1035.41 1035.22 1034.96
1015.71 1015.71 1015.70 1015.66 1015.57 1015.42 1015.20 1014.91 1014.59 1014.27 1014.00 1013.84 1013.86 1014.10 1014.61 1015.40 1016.47 1017.79 1019.30 1020.95 1022.65 1024.36 1025.99 1027.51 1028.88 1030.09 1031.12 1031.99 1032.70 1033.28 1033.75 1034.14 1034.45 1034.71 1034.93 1035.12 1035.28 1035.41 1035.48 1035.51 1035.47 1035.36 1035.18 1034.96
1015.83 1015.90 1015.94 1015.93 1015.85 1015.68 1015.40 1015.05 1014.66 1014.26 1013.94 1013.75 1013.76 1014.03 1014.57 1015.41 1016.52 1017.86 1019.36 1020.97 1022.60 1024.21 1025.74 1027.16 1028.45 1029.61 1030.64 1031.55 1032.34 1033.03 1033.61 1034.09 1034.49 1034.80 1035.04 1035.22 1035.34 1035.41 1035.43 1035.41 1035.34 1035.23 1035.08 1034.89
1015.91 1016.01 1016.07 1016.07 1015.98 1015.78 1015.47 1015.08 1014.64 1014.22 1013.89 1013.72 1013.76 1014.08 1014.69 1015.59 1016.75 1018.09 1019.57 1021.11 1022.64 1024.13 1025.53 1026.83 1028.03 1029.13 1030.15 1031.08 1031.94 1032.72 1033.40 1033.99 1034.46 1034.82 1035.08 1035.24 1035.32 1035.34 1035.31 1035.25 1035.16 1035.05 1034.91 1034.76
1015.99 1016.07 1016.12 1016.09 1015.97 1015.74 1015.40 1014.99 1014.54 1014.14 1013.85 1013.74 1013.87 1014.27 1014.96 1015.92 1017.10 1018.44 1019.87 1021.32 1022.74 1024.09 1025.35 1026.52 1027.62 1028.65 1029.64 1030.60 1031.51 1032.36 1033.13 1033.80 1034.33 1034.74 1035.00 1035.15 1035.20 1035.18 1035.11 1035.02 1034.92 1034.81 1034.70 1034.59
1016.13 1016.16 1016.15 1016.07 1015.89 1015.62 1015.27 1014.86 1014.45 1014.10 1013.89 1013.88 1014.11 1014.61 1015.38 1016.40 1017.59 1018.91 1020.27 1021.62 1022.90 1024.10 1025.21 1026.25 1027.24 1028.20 1029.16 1030.11 1031.05 1031.96 1032.79 1033.51 1034.09 1034.52 1034.79 1034.93 1034.96 1034.90 1034.81 1034.70 1034.60 1034.52 1034.45 1034.37
1016.40 1016.34 1016.25 1016.09 1015.86 1015.56 1015.20 1014.82 1014.48 1014.22 1014.12 1014.23 1014.57 1015.18 1016.02 1017.06 1018.25 1019.51 1020.78 1022.00 1023.14 1024.19 1025.15 1026.05 1026.93 1027.81 1028.72 1029.65 1030.59 1031.51 1032.36 1033.10 1033.70 1034.14 1034.41 1034.53 1034.55 1034.48 1034.38 1034.29 1034.21 1034.16 1034.13 1034.11
1016.83 1016.69 1016.50 1016.27 1015.98 1015.66 1015.32 1015.01 1014.76 1014.62 1014.65 1014.88 1015.34 1016.02 1016.91 1017.95 1019.09 1020.26 1021.41 1022.49 1023.48 1024.37 1025.19 1025.96 1026.73 1027.52 1028.35 1029.23 1030.14 1031.03 1031.86 1032.58 1033.16 1033.58 1033.84 1033.96 1033.97 1033.91 1033.83 1033.76 1033.72 1033.72 1033.75 1033.78
1017.42 1017.19 1016.92 1016.63 1016.32 1016.01 1015.73 1015.50 1015.37 1015.37 1015.54 1015.90 1016.45 1017.19 1018.08 1019.08 1020.14 1021.20 1022.20 1023.12 1023.95 1024.68 1025.36 1026.00 1026.65 1027.34 1028.08 1028.88 1029.71 1030.53 1031.29 1031.96 1032.49 1032.87 1033.11 1033.21 1033.23 1033.19 1033.15 1033.13 1033.15 1033.21 1033.29 1033.39
1018.09 1017.79 1017.48 1017.16 1016.87 1016.62 1016.43 1016.33 1016.35 1016.51 1016.82 1017.29 1017.92 1018.68 1019.54 1020.47 1021.41 1022.32 1023.16 1023.91 1024.56 1025.15 1025.67 1026.18 1026.71 1027.28 1027.92 1028.60 1029.31 1030.02 1030.68 1031.25 1031.71 1032.03 1032.24 1032.34 1032.36 1032.36 1032.37 1032.41 1032.49 1032.62 1032.77 1032.92
1018.74 1018.41 1018.10 1017.81 1017.59 1017.44 1017.40 1017.47 1017.66 1017.99 1018.44 1019.01 1019.69 1020.45 1021.26 1022.08 1022.88 1023.61 1024.27 1024.84 1025.33 1025.75 1026.14 1026.51 1026.91 1027.35 1027.85 1028.39 1028.96 1029.52 1030.04 1030.49 1030.85 1031.11 1031.28 1031.37 1031.42 1031.46 1031.52 1031.63 1031.78 1031.97 1032.18 1032.39
1019.26 1018.96 1018.70 1018.50 1018.41 1018.43 1018.57 1018.84 1019.24 1019.74 1020.33 1021.00 1021.71 1022.44 1023.17 1023.86 1024.49 1025.05 1025.52 1025.91 1026.23 1026.49 1026.73 1026.96 1027.22 1027.52 1027.86 1028.24 1028.64 1029.04 1029.41 1029.73 1029.98 1030.16 1030.29 1030.38 1030.46 1030.54 1030.66 1030.83 1031.04 1031.28 1031.53 1031.77
1019.60 1019.37 1019.22 1019.18 1019.27 1019.50 1019.88 1020.38 1020.99 1021.67 1022.40 1023.14 1023.87 1024.56 1025.19 1025.74 1026.20 1026.58 1026.86 1027.07 1027.21 1027.32 1027.41 1027.50 1027.61 1027.76 1027.93 1028.14 1028.36 1028.58 1028.79 1028.97 1029.12 1029.23 1029.33 1029.41 1029.51 1029.64 1029.81 1030.03 1030.28 1030.55 1030.83 1031.08
1019.78 1019.67 1019.68 1019.84 1020.16 1020.65 1021.27 1022.02 1022.84 1023.69 1024.55 1025.35 1026.08 1026.71 1027.23 1027.64 1027.93 1028.11 1028.21 1028.24 1028.22 1028.17 1028.11 1028.06 1028.02 1028.01 1028.02 1028.05 1028.10 1028.15 1028.20 1028.26 1028.30 1028.36 1028.42 1028.51 1028.63 1028.79 1028.99 1029.24 1029.51 1029.79 1030.06 1030.30
1019.91 1019.95 1020.16 1020.56 1021.13 1021.88 1022.75 1023.72 1024.74 1025.74 1026.68 1027.52 1028.22 1028.78 1029.19 1029.44 1029.56 1029.58 1029.50 1029.36 1029.19 1028.99 1028.78 1028.58 1028.40 1028.23 1028.08 1027.95 1027.83 1027.73 1027.65 1027.59 1027.56 1027.56 1027.60 1027.68 1027.81 1027.99 1028.21 1028.46 1028.72 1028.98 1029.23 1029.43
1020.13 1020.36 1020.80 1021.43 1022.25 1023.23 1024.33 1025.49 1026.64 1027.74 1028.73 1029.56 1030.21 1030.68 1030.95 1031.06 1031.02 1030.87 1030.64 1030.35 1030.03 1029.69 1029.35 1029.02 1028.70 1028.39 1028.10 1027.83 1027.57 1027.34 1027.15 1027.00 1026.89 1026.84 1026.86 1026.93 1027.06 1027.23 1027.44 1027.68 1027.91 1028.13 1028.32 1028.48
1020.62 1021.05 1021.70 1022.55 1023.59 1024.76 1026.01 1027.29 1028.52 1029.65 1030.62 1031.39 1031.95 1032.30 1032.44 1032.40 1032.22 1031.92 1031.55 1031.13 1030.68 1030.23 1029.78 1029.34 1028.90 1028.48 1028.07 1027.68 1027.31 1026.98 1026.69 1026.47 1026.31 1026.22 1026.20 1026.26 1026.36 1026.52 1026.70 1026.88 1027.07 1027.23 1027.36 1027.46
1021.51 1022.13 1022.97 1024.00 1025.18 1026.47 1027.80 1029.10 1030.32 1031.40 1032.28 1032.94 1033.37 1033.58 1033.58 1033.40 1033.08 1032.66 1032.18 1031.66 1031.12 1030.58 1030.04 1029.52 1029.00 1028.49 1027.99 1027.51 1027.07 1026.66 1026.31 1026.03 1025.82 1025.69 1025.64 1025.65 1025.72 1025.83 1025.95 1026.08 1026.19 1026.29 1026.35 1026.39
1022.83 1023.62 1024.60 1025.75 1027.00 1028.31 1029.62 1030.86 1031.97 1032.91 1033.64 1034.14 1034.41 1034.46 1034.32 1034.01 1033.58 1033.07 1032.51 1031.93 1031.33 1030.74 1030.16 1029.58 1029.01 1028.45 1027.90 1027.36 1026.86 1026.41 1026.01 1025.68 1025.42 1025.25 1025.15 1025.11 1025.12 1025.16 1025.21 1025.26 1025.30 1025.32 1025.32 1025.30
1024.55 1025.46 1026.53 1027.71 1028.94 1030.19 1031.38 1032.47 1033.39 1034.13 1034.65 1034.95 1035.04 1034.93 1034.66 1034.25 1033.74 1033.18 1032.58 1031.97 1031.36 1030.76 1030.16 1029.57 1028.98 1028.40 1027.82 1027.26 1026.73 1026.23 1025.80 1025.42 1025.12 1024.89 1024.72 1024.62 1024.55 1024.51 1024.48 1024.45 1024.41 1024.36 1024.29 1024.23
1026.51 1027.49 1028.58 1029.72 1030.86 1031.95 1032.95 1033.81 1034.49 1034.99 1035.28 1035.37 1035.28 1035.03 1034.65 1034.17 1033.63 1033.05 1032.46 1031.86 1031.27 1030.69 1030.11 1029.53 1028.95 1028.37 1027.79 1027.22 1026.66 1026.14 1025.67 1025.25 1024.89 1024.60 1024.36 1024.17 1024.01 1023.88 1023.76 1023.65 1023.53 1023.41 1023.29 1023.19
1028.50 1029.50 1030.55 1031.58 1032.56 1033.45 1034.20 1034.80 1035.22 1035.46 1035.52 1035.42 1035.18 1034.82 1034.38 1033.88 1033.34 1032.79 1032.24 1031.69 1031.15 1030.61 1030.07 1029.52 1028.96 1028.39 1027.81 1027.23 1026.66 1026.12 1025.60 1025.13 1024.71 1024.34 1024.02 1023.74 1023.49 1023.27 1023.06 1022.87 1022.68 1022.51 1022.35 1022.20
Thickness
5557 5559 5559 5558 5555 5556 5556 5557 5558 5557 5546 5543 5551 5556 5555 5545 5539 5540 5538 5535 5532 5528 5525 5523 5521 5520 5521 5521 5523 5525 5526 5526 5527 5528 5528 5529 5528 5528 5529 5529 5530 5531 5533 5535
5550 5548 5547 5544 5541 5540 5542 5544 5547 5543 5533 5533 5540 5546 5550 5541 5535 5534 5531 5528 5524 5520 5516 5513 5511 5510 5511 5512 5513 5514 5514 5515 5516 5516 5516 5516 5516 5516 5516 5517 5517 5518 5520 5522
5545 5539 5534 5532 5531 5532 5533 5534 5536 5532 5525 5521 5522 5548 5548 5534 5526 5521 5519 5518 5515 5511 5508 5505 5503 5502 5501 5502 5502 5503 5503 5503 5504 5504 5503 5503 5503 5503 5504 5505 5505 5505 5507 5509
5528 5525 5522 5523 5523 5523 5529 5523 5519 5516 5518 5528 5517 5539 5554 5533 5521 5516 5513 5510 5507 5503 5499 5496 5494 5493 5492 5491 5491 5490 5491 5491 5492 5492 5492 5493 5494 5494 5494 5494 5493 5493 5494 5495
5520 5513 5514 5514 5513 5511 5513 5506 5505 5505 5506 5509 5510 5511 5545 5520 5521 5517 5510 5505 5500 5495 5491 5487 5484 5483 5482 5480 5479 5479 5478 5478 5479 5479 5480 5481 5482 5482 5481 5481 5481 5482 5481 5482
5507 5502 5501 5503 5499 5498 5495 5495 5494 5492 5496 5503 5514 5509 5536 5529 5520 5515 5505 5497 5490 5485 5481 5477 5475 5473 5471 5469 5467 5467 5466 5466 5466 5466 5466 5468 5469 5469 5469 5469 5470 5470 5469 5469
5501 5497 5492 5489 5491 5488 5488 5493 5500 5502 5502 5515 5501 5498 5519 5513 5501 5496 5492 5486 5481 5475 5471 5467 5465 5462 5460 5458 5456 5455 5454 5454 5453 5453 5453 5454 5455 5456 5457 5457 5458 5458 5457 5456
5498 5501 5489 5483 5485 5484 5482 5485 5493 5500 5512 5516 5490 5497 5515 5492 5483 5478 5475 5472 5468 5464 5460 5456 5453 5451 5448 5446 5445 5443 5442 5442 5441 5440 5440 5440 5441 5442 5443 5443 5444 5444 5444 5444
5490 5490 5476 5471 5470 5472 5471 5474 5473 5474 5469 5476 5502 5498 5496 5480 5473 5467 5464 5460 5457 5453 5449 5445 5442 5439 5437 5434 5433 5431 5430 5429 5428 5428 5427 5427 5427 5428 5429 5429 5429 5430 5429 5429
5475 5472 5466 5459 5458 5456 5460 5461 5459 5462 5469 5482 5497 5496 5502 5483 5473 5462 5455 5451 5447 5442 5437 5433 5430 5427 5424 5422 5420 5418 5417 5416 5415 5415 5414 5414 5413 5414 5415 5415 5416 5416 5416 5415
5460 5460 5457 5451 5452 5459 5447 5444 5449 5456 5456 5468 5482 5497 5480 5471 5462 5454 5447 5442 5435 5429 5424 5420 5417 5414 5412 5409 5407 5406 5405 5403 5402 5401 5400 5400 5399 5399 5399 5401 5402 5403 5403 5402
5450 5452 5455 5451 5440 5435 5441 5445 5443 5448 5447 5441 5456 5477 5451 5445 5440 5436 5432 5426 5421 5416 5411 5407 5404 5402 5400 5398 5396 5394 5393 5391 5390 5388 5387 5386 5386 5386 5386 5387 5388 5389 5390 5390
5438 5437 5449 5453 5435 5421 5422 5424 5425 5426 5430 5434 5443 5465 5434 5426 5423 5419 5416 5413 5408 5402 5397 5393 5391 5388 5387 5386 5384 5382 5380 5378 5377 5375 5374 5373 5373 5373 5373 5373 5374 5375 5375 5376
5432 5430 5442 5460 5458 5435 5420 5414 5409 5411 5420 5431 5437 5451 5437 5421 5414 5410 5405 5400 5395 5390 5385 5381 5378 5376 5374 5372 5371 5370 5368 5366 5364 5363 5362 5361 5361 5360 5360 5360 5360 5361 5361 5362
5421 5424 5422 5427 5423 5415 5415 5413 5405 5403 5415 5420 5434 5428 5429 5417 5406 5399 5392 5387 5382 5378 5373 5369 5366 5363 5361 5358 5357 5356 5355 5353 5352 5351 5350 5349 5349 5348 5347 5347 5348 5347 5347 5348
5409 5410 5405 5407 5407 5400 5400 5407 5404 5400 5401 5404 5407 5411 5412 5398 5388 5382 5377 5373 5369 5365 5361 5357 5353 5349 5347 5344 5343 5342 5341 5340 5339 5338 5337 5337 5336 5336 5336 5336 5335 5334 5333 5334
5401 5396 5397 5413 5394 5388 5407 5409 5399 5394 5392 5392 5398 5405 5390 5380 5374 5369 5364 5360 5357 5354 5349 5344 5340 5335 5332 5329 5328 5328 5327 5326 5325 5324 5324 5323 5323 5323 5323 5322 5321 5320 5319 5320
5390 5388 5388 5394 5386 5397 5421 5388 5389 5385 5384 5378 5379 5376 5371 5366 5359 5352 5349 5346 5343 5339 5335 5330 5325 5321 5318 5316 5314 5314 5313 5312 5311 5310 5310 5309 5309 5309 5309 5308 5307 5306 5306 5307
5382 5382 5382 5382 5391 5407 5402 5378 5369 5369 5374 5368 5363 5360 5354 5343 5343 5344 5336 5331 5328 5324 5319 5315 5310 5306 5304 5302 5300 5299 5299 5298 5297 5297 5296 5295 5295 5295 5295 5295 5294 5293 5294 5294
5363 5367 5374 5372 5382 5401 5400 5362 5352 5356 5368 5360 5351 5348 5341 5335 5348 5347 5325 5317 5312 5307 5302 5299 5295 5293 5291 5289 5287 5287 5285 5284 5283 5283 5282 5282 5282 5282 5282 5282 5281 5280 5281 5281
5357 5356 5361 5367 5371 5385 5363 5341 5341 5361 5371 5345 5338 5336 5330 5329 5331 5320 5308 5302 5297 5293 5289 5285 5283 5280 5277 5275 5274 5274 5272 5271 5270 5269 5269 5268 5268 5268 5268 5268 5268 5268 5268 5268
5361 5359 5351 5354 5359 5371 5336 5332 5340 5348 5332 5327 5325 5322 5317 5312 5304 5298 5293 5288 5284 5280 5276 5273 5271 5268 5265 5262 5261 5261 5259 5258 5257 5256 5256 5255 5255 5255 5255 5255 5255 5254 5254 5255
5351 5354 5355 5351 5357 5338 5323 5323 5318 5314 5315 5314 5311 5306 5300 5295 5290 5285 5279 5275 5271 5267 5264 5261 5258 5255 5252 5250 5249 5248 5246 5245 5244 5243 5242 5242 5241 5241 5241 5241 5242 5242 5241 5242
5333 5322 5329 5327 5331 5319 5310 5306 5302 5299 5298 5297 5294 5290 5286 5282 5277 5272 5267 5262 5258 5255 5252 5249 5246 5244 5241 5238 5236 5234 5233 5231 5230 5230 5229 5229 5229 5229 5228 5228 5228 5228 5228 5228
5327 5311 5313 5315 5314 5304 5300 5295 5292 5287 5283 5280 5277 5274 5271 5268 5263 5258 5254 5249 5246 5242 5239 5236 5233 5231 5228 5225 5223 5222 5220 5219 5218 5217 5216 5216 5216 5215 5215 5214 5214 5213 5213 5213
5305 5301 5307 5319 5308 5299 5297 5285 5278 5273 5269 5266 5262 5258 5255 5252 5248 5244 5239 5235 5232 5229 5226 5223 5220 5218 5215 5213 5211 5209 5207 5206 5205 5205 5204 5204 5204 5203 5202 5202 5201 5200 5199 5200